FW5172 Weather Reports


time (UTC)temp
C
wind
direction
speed
KPH
gust
KPH
rain 1hr
cm
rain 24hr
cm
rain mn
cm
humidity
%
barometer
mb
20260505063513 8 235 0.0 1.6 0.00 0.00 0.00 91 1017.1
20260505063014 8 243 0.0 1.6 0.00 0.00 0.00 91 1017.1
20260505062514 8 254 0.0 1.6 0.00 0.00 0.00 90 1017.2
20260505062010 8 256 0.0 3.2 0.00 0.00 0.00 90 1017.2
20260505061508 8 252 0.0 4.8 0.00 0.00 0.00 90 1017.3
20260505061011 8 251 0.0 0.0 0.00 0.00 0.00 90 1017.3
20260505060509 8 247 0.0 0.0 0.00 0.00 0.00 90 1017.4
20260505060021 8 243 0.0 0.0 0.00 0.00 0.00 91 1017.3
20260505055507 8 250 0.0 0.0 0.00 0.00 0.00 91 1017.3
20260505055005 8 236 0.0 0.0 0.00 0.00 0.00 91 1017.4
20260505054504 8 243 0.0 0.0 0.00 0.00 0.00 91 1017.3
20260505054002 8 266 0.0 0.0 0.00 0.00 0.00 90 1017.5
20260505053501 8 267 0.0 0.0 0.00 0.00 0.00 90 1017.4
20260505053000 8 267 0.0 0.0 0.00 0.00 0.00 90 1017.4
20260505052604 9 267 0.0 0.0 0.00 0.00 0.00 90 1017.4
20260505052059 9 267 0.0 0.0 0.00 0.00 0.00 90 1017.4
20260505051558 9 261 0.0 0.0 0.00 0.00 0.00 90 1017.3
20260505051058 9 262 0.0 0.0 0.00 0.00 0.00 90 1017.2
20260505050557 9 268 0.0 0.0 0.00 0.00 0.00 90 1017.3
20260505041544 10 262 0.0 0.0 0.00 0.00 0.00 87 1017.2
20260505041045 10 239 0.0 0.0 0.00 0.00 0.00 87 1017.2
20260505040541 10 262 0.0 0.0 0.00 0.00 0.00 87 1017.2
20260505040040 10 265 0.0 0.0 0.00 0.00 0.00 86 1017.2
20260505035539 10 252 0.0 0.0 0.00 0.00 0.00 85 1017.2
20260505035041 11 252 0.0 0.0 0.00 0.00 0.00 84 1017.2
20260505034537 11 252 0.0 0.0 0.00 0.00 0.00 84 1017.3
20260505034038 11 251 0.0 0.0 0.00 0.00 0.00 83 1017.4
20260505033536 11 251 0.0 0.0 0.00 0.00 0.00 84 1017.5
20260505033100 11 251 0.0 0.0 0.00 0.00 0.00 84 1017.5
20260505032536 11 251 0.0 0.0 0.00 0.00 0.00 83 1017.5
20260505032034 11 252 0.0 0.0 0.00 0.00 0.00 83 1017.5
20260505031537 11 252 0.0 0.0 0.00 0.00 0.00 82 1017.5
20260505031033 12 259 0.0 0.0 0.00 0.00 0.00 81 1017.5
20260505030533 12 259 0.0 0.0 0.00 0.00 0.00 81 1017.5
20260505030032 12 251 0.0 0.0 0.00 0.00 0.00 79 1017.5
20260505025532 12 251 0.0 0.0 0.00 0.00 0.00 78 1017.5
20260505025030 12 251 0.0 0.0 0.00 0.00 0.00 78 1017.6
20260505024531 12 269 0.0 0.0 0.00 0.00 0.00 78 1017.6
20260505024029 13 269 0.0 0.0 0.00 0.00 0.00 76 1017.6
20260505023528 13 269 0.0 0.0 0.00 0.00 0.00 75 1017.6
20260505023028 13 269 0.0 1.6 0.00 0.00 0.00 75 1017.5
20260505022530 13 262 0.0 1.6 0.00 0.00 0.00 73 1017.5
20260505022027 13 282 0.0 1.6 0.00 0.00 0.00 72 1017.4
20260505021528 14 255 0.0 1.6 0.00 0.00 0.00 73 1017.3
20260505021029 14 251 0.0 1.6 0.00 0.00 0.00 71 1017.4
20260505020525 15 250 0.0 1.6 0.00 0.00 0.00 70 1017.4
20260505020024 15 250 0.0 1.6 0.00 0.00 0.00 69 1017.2
20260505015524 15 259 0.0 1.6 0.00 0.00 0.00 68 1017.3
20260505015023 15 266 0.0 1.6 0.00 0.00 0.00 67 1017.3
20260505014522 15 266 0.0 1.6 0.00 0.00 0.00 66 1017.1
20260505014021 16 241 0.0 1.6 0.00 0.00 0.00 65 1017.0
20260505013521 16 241 0.0 0.0 0.00 0.00 0.00 63 1016.9
20260505013021 16 241 0.0 1.6 0.00 0.00 0.00 60 1016.9
20260505012520 16 241 0.0 1.6 0.00 0.00 0.00 57 1016.9
20260505012019 17 238 0.0 0.0 0.00 0.00 0.00 56 1016.8
20260505011521 17 238 0.0 0.0 0.00 0.00 0.00 57 1016.8
20260505011018 17 237 0.0 0.0 0.00 0.00 0.00 54 1016.8
20260505010518 17 238 0.0 0.0 0.00 0.00 0.00 54 1016.8
20260505010018 17 259 0.0 1.6 0.00 0.00 0.00 54 1016.6
20260505005517 18 264 0.0 1.6 0.00 0.00 0.00 53 1016.7
20260505005016 18 278 0.0 1.6 0.00 0.00 0.00 51 1016.7
20260505004531 19 248 0.0 1.6 0.00 0.00 0.00 48 1016.4
20260505004015 19 248 0.0 1.6 0.00 0.00 0.00 48 1016.3
20260505003515 20 248 0.0 1.6 0.00 0.00 0.00 47 1016.2
20260505003014 20 247 0.0 1.6 0.00 0.00 0.00 47 1016.2
20260505002513 20 139 0.0 4.8 0.00 0.00 0.00 46 1016.2
20260505002012 20 136 0.0 4.8 0.00 0.00 0.00 45 1016.2
20260505001512 20 200 0.0 4.8 0.00 0.00 0.00 45 1016.4
20260505001013 20 158 0.0 6.4 0.00 0.00 0.00 45 1016.3
20260505000510 20 217 0.0 9.7 0.00 0.00 0.00 45 1016.2
20260505000014 20 146 0.0 4.8 0.00 0.00 0.00 44 1016.0
20260504235510 20 198 0.0 4.8 0.00 0.00 0.00 45 1016.0
20260504235009 21 171 0.0 4.8 0.00 0.00 0.00 44 1016.0
20260504234510 21 175 0.0 3.2 0.00 0.00 0.00 43 1016.0
20260504234007 21 143 0.0 1.6 0.00 0.00 0.00 43 1015.8
20260504233607 21 188 0.0 1.6 0.00 0.00 0.00 42 1015.7
20260504233005 21 225 0.0 4.8 0.00 0.00 0.00 42 1015.6
20260504232505 21 212 0.0 6.4 0.00 0.00 0.00 41 1015.7
20260504232004 21 212 0.0 6.4 0.00 0.00 0.00 41 1015.8
20260504231513 21 142 0.0 6.4 0.00 0.00 0.00 41 1015.7
20260504231003 22 162 0.0 3.2 0.00 0.00 0.00 40 1015.8
20260504230502 22 164 0.0 8.0 0.00 0.00 0.00 41 1015.7
20260504230002 22 231 0.0 6.4 0.00 0.00 0.00 40 1015.7
20260504225502 22 226 0.0 6.4 0.00 0.00 0.00 38 1015.7
20260504225100 22 213 0.0 8.0 0.00 0.00 0.00 38 1015.6
20260504224607 23 183 1.6 6.4 0.00 0.00 0.00 37 1015.6
20260504224059 23 174 0.0 12.9 0.00 0.00 0.00 37 1015.6
20260504223558 23 165 1.6 12.9 0.00 0.00 0.00 36 1015.7
20260504223057 23 186 1.6 9.7 0.00 0.00 0.00 36 1015.7
20260504222557 23 126 3.2 9.7 0.00 0.00 0.00 36 1015.7
20260504222057 23 209 3.2 6.4 0.00 0.00 0.00 37 1015.8
20260504221604 23 140 0.0 17.7 0.00 0.00 0.00 37 1015.8
20260504221054 23 199 3.2 17.7 0.00 0.00 0.00 34 1015.7
20260504220554 23 141 4.8 16.1 0.00 0.00 0.00 34 1015.7
20260504220055 23 146 3.2 19.3 0.00 0.00 0.00 36 1015.6
20260504215553 23 193 4.8 20.9 0.00 0.00 0.00 35 1015.8
20260504215050 24 212 3.2 20.9 0.00 0.00 0.00 35 1015.7
20260504214552 24 167 1.6 22.5 0.00 0.00 0.00 38 1015.6
20260504214047 24 169 8.0 22.5 0.00 0.00 0.00 34 1015.7
20260504213546 25 231 1.6 17.7 0.00 0.00 0.00 36 1015.6
20260504213052 24 220 3.2 19.3 0.00 0.00 0.00 35 1015.7
20260504212545 25 278 3.2 19.3 0.00 0.00 0.00 35 1015.6
20260504212044 25 279 6.4 19.3 0.00 0.00 0.00 35 1015.5
20260504211542 25 190 6.4 16.1 0.00 0.00 0.00 36 1015.6
20260504211041 25 224 3.2 14.5 0.00 0.00 0.00 34 1015.5
20260504210539 25 147 3.2 16.1 0.00 0.00 0.00 36 1015.5
20260504210049 25 176 4.8 14.5 0.00 0.00 0.00 33 1015.7
20260504205539 25 229 3.2 17.7 0.00 0.00 0.00 34 1015.7
20260504205039 25 220 0.0 14.5 0.00 0.00 0.00 36 1015.5
20260504204613 25 134 4.8 14.5 0.00 0.00 0.00 34 1015.7
20260504204035 25 105 4.8 11.3 0.00 0.00 0.00 35 1015.7
20260504203537 25 131 1.6 17.7 0.00 0.00 0.00 36 1015.8
20260504203132 25 179 4.8 17.7 0.00 0.00 0.00 36 1015.7
20260504202531 25 138 4.8 20.9 0.00 0.00 0.00 36 1015.8
20260504202030 25 134 3.2 20.9 0.00 0.00 0.00 36 1015.9
20260504201529 25 238 6.4 16.1 0.00 0.00 0.00 36 1016.1
20260504201028 25 212 4.8 19.3 0.00 0.00 0.00 36 1016.1
20260504200527 25 125 6.4 20.9 0.00 0.00 0.00 36 1016.2
20260504200031 25 131 3.2 14.5 0.00 0.00 0.00 35 1016.3
20260504195527 25 161 4.8 24.1 0.00 0.00 0.00 35 1016.4
20260504195023 25 175 4.8 17.7 0.00 0.00 0.00 34 1016.4
20260504194523 25 201 1.6 12.9 0.00 0.00 0.00 36 1016.4
20260504194025 25 258 4.8 17.7 0.00 0.00 0.00 34 1016.5
20260504193522 25 205 3.2 12.9 0.00 0.00 0.00 36 1016.6
20260504193023 25 161 0.0 11.3 0.00 0.00 0.00 36 1016.6
20260504192521 25 266 1.6 17.7 0.00 0.00 0.00 36 1016.7
20260504192018 24 243 4.8 17.7 0.00 0.00 0.00 36 1016.7
20260504191517 24 157 0.0 17.7 0.00 0.00 0.00 40 1016.8
20260504191016 24 139 3.2 19.3 0.00 0.00 0.00 36 1016.9
20260504190514 24 119 6.4 19.3 0.00 0.00 0.00 36 1016.9
20260504190013 24 262 1.6 14.5 0.00 0.00 0.00 37 1016.9
20260504185514 24 209 1.6 17.7 0.00 0.00 0.00 37 1017.0
20260504185012 23 182 4.8 17.7 0.00 0.00 0.00 37 1017.1
20260504184508 23 136 3.2 12.9 0.00 0.00 0.00 37 1017.3
20260504184107 23 139 3.2 20.9 0.00 0.00 0.00 36 1017.4
20260504183506 23 172 6.4 20.9 0.00 0.00 0.00 38 1017.5
20260504183005 23 84 4.8 19.3 0.00 0.00 0.00 36 1017.7
20260504182504 23 127 6.4 19.3 0.00 0.00 0.00 36 1017.7
20260504182001 23 92 0.0 11.3 0.00 0.00 0.00 39 1017.8
20260504181501 23 266 0.0 12.9 0.00 0.00 0.00 37 1017.8
20260504181059 23 197 3.2 12.9 0.00 0.00 0.00 38 1017.9
20260504180600 23 265 3.2 11.3 0.00 0.00 0.00 38 1017.9
20260504180057 23 232 4.8 11.3 0.00 0.00 0.00 37 1017.9
20260504175557 23 108 3.2 11.3 0.00 0.00 0.00 38 1018.1
20260504175054 22 117 3.2 17.7 0.00 0.00 0.00 40 1018.2
20260504174553 22 98 4.8 17.7 0.00 0.00 0.00 37 1018.2
20260504174053 22 316 0.0 11.3 0.00 0.00 0.00 36 1018.2
20260504173551 22 268 1.6 14.5 0.00 0.00 0.00 37 1018.3
20260504173052 22 117 6.4 14.5 0.00 0.00 0.00 35 1018.3
20260504172549 22 232 0.0 12.9 0.00 0.00 0.00 37 1018.3
20260504172049 22 193 4.8 12.9 0.00 0.00 0.00 35 1018.4
20260504171549 22 165 0.0 8.0 0.00 0.00 0.00 35 1018.4
20260504171047 22 120 3.2 9.7 0.00 0.00 0.00 35 1018.5
20260504170546 22 120 3.2 12.9 0.00 0.00 0.00 36 1018.5
20260504151014 18 40 1.6 6.4 0.00 0.00 0.00 48 1020.5
20260504150512 18 72 0.0 4.8 0.00 0.00 0.00 50 1020.7
20260504141055 16 27 3.2 6.4 0.00 0.00 0.00 58 1020.8
20260504140555 15 43 1.6 6.4 0.00 0.00 0.00 59 1020.6
20260504130535 12 275 0.0 1.6 0.00 0.00 0.00 71 1020.3
20260504110504 2 223 0.0 1.6 0.00 0.00 0.00 98 1019.8
20260504100559 2 262 0.0 0.0 0.00 0.00 0.00 97 1020.1
20260504081539 3 265 0.0 1.6 0.00 0.00 0.00 97 1019.8
20260504081035 3 241 0.0 0.0 0.00 0.00 0.00 97 1019.8
20260504080534 3 241 0.0 0.0 0.00 0.00 0.00 96 1019.8